This is the latest recevied weather packets stored in our database for station/object DM4XI-13. If no packets are shown the sender has not sent any weather packets the latest 10 day(s).
| Time | Temp. | Humidity | Pressure | Rain* | Wind** | Luminosity | Snow |
|---|---|---|---|---|---|---|---|
| 1777624912 | 16.67° C | 40% | 1026.4 hPa | 0 mm | 0.45 m/s, 146° | 495 W/m² | - |
| 1777624850 | 16.67° C | 40% | 1026.3 hPa | 0 mm | 0.89 m/s, 73° | 492 W/m² | - |
| 1777624790 | 16.67° C | 39% | 1026.3 hPa | 0 mm | 1.34 m/s, 158° | 491 W/m² | - |
| 1777624728 | 16.11° C | 40% | 1026.3 hPa | 0 mm | 0.89 m/s, 98° | 489 W/m² | - |
| 1777624667 | 16.11° C | 40% | 1026.3 hPa | 0 mm | 0.89 m/s, 278° | 488 W/m² | - |
| 1777624606 | 15.56° C | 40% | 1026.4 hPa | 0 mm | 0.89 m/s, 289° | 486 W/m² | - |
| 1777624545 | 15.56° C | 42% | 1026.2 hPa | 0 mm | 0.89 m/s, 153° | 484 W/m² | - |
| 1777624484 | 15.56° C | 42% | 1026.3 hPa | 0 mm | 0 m/s | 481 W/m² | - |
| 1777624423 | 15.56° C | 40% | 1026.2 hPa | 0 mm | 0.89 m/s, 38° | 478 W/m² | - |
| 1777624362 | 15.56° C | 42% | 1026.3 hPa | 0 mm | 0.89 m/s, 57° | 476 W/m² | - |
| 1777624302 | 15.56° C | 39% | 1026.3 hPa | 0 mm | 1.34 m/s, 154° | 476 W/m² | - |
| 1777624240 | 15.56° C | 40% | 1026.4 hPa | 0 mm | 1.79 m/s, 102° | 476 W/m² | - |
| 1777624179 | 15.56° C | 39% | 1026.3 hPa | 0 mm | 2.68 m/s, 143° | 474 W/m² | - |
| 1777624118 | 15.56° C | 39% | 1026.3 hPa | 0 mm | 0.89 m/s, 162° | 471 W/m² | - |
| 1777624057 | 15.56° C | 41% | 1026.2 hPa | 0 mm | 0.89 m/s, 36° | 468 W/m² | - |
| 1777623996 | 15.56° C | 40% | 1026.3 hPa | 0 mm | 0.89 m/s, 173° | 468 W/m² | - |
| 1777623935 | 15.56° C | 40% | 1026.4 hPa | 0 mm | 0.89 m/s, 166° | 466 W/m² | - |
| 1777623874 | 15.56° C | 40% | 1026.2 hPa | 0 mm | 0.45 m/s, 168° | 463 W/m² | - |
| 1777623813 | 15° C | 42% | 1026.4 hPa | 0 mm | 0.45 m/s, 174° | 462 W/m² | - |
| 1777623752 | 15° C | 41% | 1026.4 hPa | 0 mm | 0.45 m/s, 168° | 458 W/m² | - |
| 1777623691 | 15.56° C | 41% | 1026.3 hPa | 0 mm | 0.89 m/s, 184° | 457 W/m² | - |
| 1777623630 | 15.56° C | 40% | 1026.2 hPa | 0 mm | 1.79 m/s, 115° | 455 W/m² | - |
| 1777623569 | 15.56° C | 40% | 1026.3 hPa | 0 mm | 1.34 m/s, 155° | 451 W/m² | - |
| 1777623508 | 15.56° C | 39% | 1026.2 hPa | 0 mm | 2.24 m/s, 71° | 450 W/m² | - |
| 1777623447 | 15.56° C | 40% | 1026.3 hPa | 0 mm | 1.34 m/s, 232° | 447 W/m² | - |
* Rain latest hour (hover to see other rain measurements)
** Current wind speed in m/s (hover to see current wind gust speed)